This is the latest recevied weather packets stored in our database for station/object KD0SBN. If no packets are shown the sender has not sent any weather packets the latest 10 day(s).
| Time | Temp. | Humidity | Pressure | Rain* | Wind** | Luminosity | Snow |
|---|---|---|---|---|---|---|---|
| 1777586677 | 8.89° C | 79% | 1018.6 hPa | 0 mm | - | - | - |
| 1777586372 | 8.33° C | 82% | 1019 hPa | 0 mm | - | - | - |
| 1777586072 | 8.33° C | 82% | 1019 hPa | 0 mm | - | - | - |
| 1777585770 | 8.33° C | 84% | 1019.1 hPa | 0 mm | - | - | - |
| 1777585465 | 8.33° C | 83% | 1019.2 hPa | 0 mm | - | - | - |
| 1777585161 | 8.33° C | 84% | 1019.1 hPa | 0 mm | - | - | - |
| 1777584857 | 8.33° C | 83% | 1019 hPa | 0 mm | - | - | - |
| 1777584555 | 8.33° C | 80% | 1019.1 hPa | 0 mm | - | - | - |
| 1777584251 | 8.89° C | 78% | 1019 hPa | 0 mm | - | - | - |
| 1777583951 | 8.89° C | 77% | 1018.9 hPa | 0 mm | - | - | - |
| 1777583647 | 8.89° C | 77% | 1019 hPa | 0 mm | - | - | - |
| 1777583346 | 8.89° C | 78% | 1019.1 hPa | 0 mm | - | - | - |
| 1777583046 | 9.44° C | 78% | 1019.1 hPa | 0 mm | - | - | - |
| 1777582743 | 9.44° C | 74% | 1019.1 hPa | 0 mm | - | - | - |
| 1777582438 | 9.44° C | 74% | 1019.1 hPa | 0 mm | - | - | - |
| 1777582133 | 8.89° C | 76% | 1019.2 hPa | 0 mm | - | - | - |
| 1777581832 | 8.89° C | 76% | 1019.1 hPa | 0 mm | - | - | - |
| 1777581531 | 8.89° C | 78% | 1019.3 hPa | 0 mm | - | - | - |
| 1777581227 | 8.33° C | 79% | 1019.3 hPa | 0 mm | - | - | - |
| 1777580921 | 8.33° C | 79% | 1019.4 hPa | 0 mm | - | - | - |
| 1777580621 | 8.33° C | 79% | 1019.6 hPa | 0 mm | - | - | - |
| 1777580317 | 8.33° C | 78% | 1019.7 hPa | 0 mm | - | - | - |
| 1777580014 | 8.33° C | 79% | 1019.2 hPa | 0 mm | - | - | - |
| 1777579709 | 8.33° C | 79% | 1019.2 hPa | 0 mm | - | - | - |
| 1777579408 | 8.89° C | 77% | 1019.3 hPa | 0 mm | - | - | - |
* Rain latest hour (hover to see other rain measurements)
** Current wind speed in m/s (hover to see current wind gust speed)